Time,TemperatureF,DewpointF,PressureIn,WindDirection,WindDirectionDegrees,WindSpeedMPH,WindSpeedGustMPH,Humidity,HourlyPrecipIn,Conditions,Clouds,dailyrainin,SolarRadiationWatts/m^2,SoftwareType,DateUTC
2013-03-01 00:00:00,34.0,29.4,29.64,WNW,283,2.3,2.3,83,0.00,OVC,,0.00,0.0,WeatherDisplay:10.37,2013-03-01 05:00:00,
2013-03-01 00:06:00,33.9,29.3,29.64,WNW,283,0.0,0.0,83,0.00,OVC,,0.00,0.0,WeatherDisplay:10.37,2013-03-01 05:06:00,
2013-03-01 00:11:00,33.9,29.3,29.64,WNW,283,2.3,2.3,83,0.00,OVC,,0.00,0.0,WeatherDisplay:10.37,2013-03-01 05:11:00,
2013-03-01 00:16:00,34.0,29.7,29.64,WNW,303,1.1,1.1,84,0.00,OVC,,0.00,0.0,WeatherDisplay:10.37,2013-03-01 05:16:00,
2013-03-01 00:21:00,34.3,30.0,29.64,WNW,303,2.3,2.3,84,0.00,OVC,,0.00,0.0,WeatherDisplay:10.37,2013-03-01 05:21:00,
2013-03-01 00:26:00,34.4,30.1,29.64,WNW,303,2.3,2.3,84,0.00,OVC,,0.00,0.0,WeatherDisplay:10.37,2013-03-01 05:26:00,
2013-03-01 00:31:00,34.4,30.1,29.64,WNW,303,1.1,1.1,84,0.00,OVC,,0.00,0.0,WeatherDisplay:10.37,2013-03-01 05:31:00,
2013-03-01 00:36:00,34.4,30.1,29.64,WNW,303,2.3,2.3,84,0.00,OVC,,0.00,0.0,WeatherDisplay:10.37,2013-03-01 05:36:00,
2013-03-01 00:41:00,34.4,30.1,29.65,West,273,3.5,3.5,84,0.00,OVC,,0.00,0.0,WeatherDisplay:10.37,2013-03-01 05:41:00,
2013-03-01 00:46:00,34.4,30.1,29.65,West,273,2.3,2.3,84,0.00,OVC,,0.00,0.0,WeatherDisplay:10.37,2013-03-01 05:46:00,
2013-03-01 00:51:00,34.4,30.1,29.65,West,277,2.3,2.3,84,0.00,OVC,,0.00,0.0,WeatherDisplay:10.37,2013-03-01 05:51:00,
2013-03-01 00:56:00,34.4,30.1,29.65,West,274,2.3,2.3,84,0.00,OVC,,0.00,0.0,WeatherDisplay:10.37,2013-03-01 05:56:00,
2013-03-01 01:01:00,34.4,30.1,29.65,West,274,1.1,1.1,84,0.00,OVC,,0.00,0.0,WeatherDisplay:10.37,2013-03-01 06:01:00,
2013-03-01 01:06:00,34.4,30.1,29.65,West,270,2.3,2.3,84,0.00,OVC,,0.00,0.0,WeatherDisplay:10.37,2013-03-01 06:06:00,
2013-03-01 01:11:00,34.4,30.1,29.65,West,268,2.3,2.3,84,0.00,OVC,,0.00,0.0,WeatherDisplay:10.37,2013-03-01 06:11:00,
2013-03-01 01:16:00,34.4,30.1,29.65,WSW,252,2.3,2.3,84,0.00,OVC,,0.00,0.0,WeatherDisplay:10.37,2013-03-01 06:16:00,
2013-03-01 01:21:00,34.4,30.1,29.65,WSW,244,2.3,2.3,84,0.00,OVC,,0.00,0.0,WeatherDisplay:10.37,2013-03-01 06:21:00,
2013-03-01 01:26:00,34.4,30.1,29.65,WNW,284,3.5,3.5,84,0.00,OVC,,0.00,0.0,WeatherDisplay:10.37,2013-03-01 06:26:00,
2013-03-01 01:31:00,34.6,30.6,29.65,WNW,294,2.3,2.3,85,0.00,OVC,,0.00,0.0,WeatherDisplay:10.37,2013-03-01 06:31:00,
2013-03-01 01:36:00,34.7,30.7,29.65,WNW,286,3.5,3.5,85,0.00,OVC,,0.00,0.0,WeatherDisplay:10.37,2013-03-01 06:36:00,
2013-03-01 01:41:00,34.9,30.8,29.65,West,277,3.5,3.5,85,0.00,OVC,,0.00,0.0,WeatherDisplay:10.37,2013-03-01 06:41:00,
2013-03-01 01:46:00,35.0,30.9,29.65,WNW,292,4.6,4.6,85,0.00,OVC,,0.00,0.0,WeatherDisplay:10.37,2013-03-01 06:46:00,
2013-03-01 01:51:00,35.0,30.7,29.65,West,279,3.5,3.5,84,0.00,OVC,,0.00,0.0,WeatherDisplay:10.37,2013-03-01 06:51:00,
2013-03-01 01:56:00,35.0,30.7,29.65,West,279,3.5,3.5,84,0.00,OVC,,0.00,0.0,WeatherDisplay:10.37,2013-03-01 06:56:00,
2013-03-01 02:01:00,35.0,30.7,29.65,WNW,290,3.5,3.5,84,0.00,OVC,,0.00,0.0,WeatherDisplay:10.37,2013-03-01 07:01:00,
2013-03-01 02:06:00,35.0,30.9,29.65,WNW,294,3.5,3.5,85,0.00,OVC,,0.00,0.0,WeatherDisplay:10.37,2013-03-01 07:06:00,
2013-03-01 02:11:00,34.9,30.8,29.66,West,281,3.5,3.5,85,0.00,OVC,,0.00,0.0,WeatherDisplay:10.37,2013-03-01 07:11:00,
2013-03-01 02:16:00,35.0,30.9,29.66,West,281,3.5,3.5,85,0.00,OVC,,0.00,0.0,WeatherDisplay:10.37,2013-03-01 07:16:00,
2013-03-01 02:21:00,35.0,30.9,29.66,WNW,288,3.5,3.5,85,0.00,OVC,,0.00,0.0,WeatherDisplay:10.37,2013-03-01 07:21:00,
2013-03-01 02:26:00,35.0,30.9,29.66,WNW,290,4.0,4.0,85,0.00,OVC,,0.00,0.0,WeatherDisplay:10.37,2013-03-01 07:26:00,
2013-03-01 02:31:00,35.1,31.0,29.66,West,277,3.5,3.5,85,0.00,OVC,,0.00,0.0,WeatherDisplay:10.37,2013-03-01 07:31:00,
2013-03-01 02:36:00,35.1,31.0,29.66,WNW,282,4.0,4.0,85,0.00,OVC,,0.00,0.0,WeatherDisplay:10.37,2013-03-01 07:36:00,
2013-03-01 02:41:00,35.2,31.1,29.66,WNW,293,3.5,3.5,85,0.00,OVC,,0.00,0.0,WeatherDisplay:10.37,2013-03-01 07:41:00,
2013-03-01 02:46:00,35.3,31.2,29.66,NW,314,4.0,4.0,85,0.00,OVC,,0.00,0.0,WeatherDisplay:10.37,2013-03-01 07:46:00,
2013-03-01 02:51:00,35.3,31.2,29.66,NW,306,3.5,3.5,85,0.00,OVC,,0.00,0.0,WeatherDisplay:10.37,2013-03-01 07:51:00,
2013-03-01 02:56:00,35.4,31.3,29.66,WNW,291,4.6,4.6,85,0.00,OVC,,0.00,0.0,WeatherDisplay:10.37,2013-03-01 07:56:00,
2013-03-01 03:02:00,35.4,31.3,29.66,WNW,291,5.0,5.0,85,0.00,OVC,,0.00,0.0,WeatherDisplay:10.37,2013-03-01 08:02:00,
2013-03-01 03:07:00,35.5,31.4,29.66,WNW,294,4.6,4.6,85,0.00,OVC,,0.00,0.0,WeatherDisplay:10.37,2013-03-01 08:07:00,
2013-03-01 03:12:00,35.6,31.5,29.67,WNW,300,5.8,5.8,85,0.00,OVC,,0.00,0.0,WeatherDisplay:10.37,2013-03-01 08:12:00,
2013-03-01 03:17:00,35.7,31.6,29.67,WNW,301,3.5,3.5,85,0.00,OVC,,0.00,0.0,WeatherDisplay:10.37,2013-03-01 08:17:00,
2013-03-01 03:22:00,35.8,31.4,29.67,WNW,291,3.5,3.5,84,0.00,OVC,,0.00,0.0,WeatherDisplay:10.37,2013-03-01 08:22:00,
2013-03-01 03:27:00,35.8,31.4,29.67,WNW,293,4.0,4.0,84,0.00,OVC,,0.00,0.0,WeatherDisplay:10.37,2013-03-01 08:27:00,
2013-03-01 03:32:00,35.9,31.5,29.67,WNW,284,4.0,4.3,84,0.00,OVC,,0.00,0.0,WeatherDisplay:10.37,2013-03-01 08:32:00,
2013-03-01 03:37:00,36.0,31.6,29.67,WNW,290,6.9,6.9,84,0.00,OVC,,0.00,0.0,WeatherDisplay:10.37,2013-03-01 08:37:00,
2013-03-01 03:42:00,36.1,31.7,29.67,WNW,295,6.9,6.9,84,0.00,OVC,,0.00,0.0,WeatherDisplay:10.37,2013-03-01 08:42:00,
2013-03-01 03:47:00,36.2,31.5,29.67,NW,305,7.0,7.0,83,0.00,OVC,,0.00,0.0,WeatherDisplay:10.37,2013-03-01 08:47:00,
2013-03-01 03:52:00,36.3,31.6,29.67,WNW,294,6.9,6.9,83,0.00,OVC,,0.00,0.0,WeatherDisplay:10.37,2013-03-01 08:52:00,
2013-03-01 03:57:00,36.4,31.7,29.67,WNW,302,9.2,9.2,83,0.00,OVC,,0.00,0.0,WeatherDisplay:10.37,2013-03-01 08:57:00,
2013-03-01 04:02:00,36.5,31.5,29.67,NW,306,6.9,6.9,82,0.00,OVC,,0.00,0.0,WeatherDisplay:10.37,2013-03-01 09:02:00,
2013-03-01 04:07:00,36.5,31.5,29.67,WNW,293,8.1,8.1,82,0.00,OVC,,0.00,0.0,WeatherDisplay:10.37,2013-03-01 09:07:00,
2013-03-01 04:12:00,36.6,31.6,29.67,NW,307,6.9,6.9,82,0.00,OVC,,0.00,0.0,WeatherDisplay:10.37,2013-03-01 09:12:00,
2013-03-01 04:17:00,36.6,31.3,29.67,WNW,296,5.8,5.8,81,0.00,OVC,,0.00,0.0,WeatherDisplay:10.37,2013-03-01 09:17:00,
2013-03-01 04:22:00,36.6,31.3,29.67,WNW,296,6.9,6.9,81,0.00,OVC,,0.00,0.0,WeatherDisplay:10.37,2013-03-01 09:22:00,
2013-03-01 04:27:00,36.6,31.3,29.68,NW,304,5.8,5.8,81,0.00,OVC,,0.00,0.0,WeatherDisplay:10.37,2013-03-01 09:27:00,
2013-03-01 04:32:00,36.6,31.3,29.68,WNW,298,5.0,5.0,81,0.00,OVC,,0.00,0.0,WeatherDisplay:10.37,2013-03-01 09:32:00,
2013-03-01 04:37:00,36.6,31.3,29.68,WNW,300,5.8,5.8,81,0.00,OVC,,0.00,0.0,WeatherDisplay:10.37,2013-03-01 09:37:00,
2013-03-01 04:42:00,36.6,31.3,29.68,WNW,296,6.9,6.9,81,0.00,OVC,,0.00,0.0,WeatherDisplay:10.37,2013-03-01 09:42:00,
2013-03-01 04:47:00,36.6,31.3,29.68,WNW,299,5.0,5.0,81,0.00,OVC,,0.00,0.0,WeatherDisplay:10.37,2013-03-01 09:47:00,
2013-03-01 04:52:00,36.5,31.2,29.68,WNW,302,4.6,4.6,81,0.00,OVC,,0.00,0.0,WeatherDisplay:10.37,2013-03-01 09:52:00,
2013-03-01 04:57:00,36.5,31.2,29.68,WNW,297,4.0,4.0,81,0.00,OVC,,0.00,0.0,WeatherDisplay:10.37,2013-03-01 09:57:00,
2013-03-01 05:02:00,36.4,31.1,29.68,WNW,294,5.0,5.0,81,0.00,OVC,,0.00,0.0,WeatherDisplay:10.37,2013-03-01 10:02:00,
2013-03-01 05:07:00,36.3,31.0,29.69,WNW,290,4.6,4.6,81,0.00,OVC,,0.00,0.0,WeatherDisplay:10.37,2013-03-01 10:07:00,
2013-03-01 05:12:00,36.2,30.9,29.69,WNW,296,4.6,4.6,81,0.00,OVC,,0.00,0.0,WeatherDisplay:10.37,2013-03-01 10:12:00,
2013-03-01 05:17:00,36.1,30.8,29.69,NW,305,4.0,4.0,81,0.00,OVC,,0.00,0.0,WeatherDisplay:10.37,2013-03-01 10:17:00,
2013-03-01 05:22:00,36.1,30.8,29.69,WNW,293,3.5,3.5,81,0.00,OVC,,0.00,0.0,WeatherDisplay:10.37,2013-03-01 10:22:00,
2013-03-01 05:27:00,36.0,30.7,29.69,WNW,293,5.8,5.8,81,0.00,OVC,,0.00,0.0,WeatherDisplay:10.37,2013-03-01 10:27:00,
2013-03-01 05:32:00,35.8,30.5,29.69,NW,304,3.5,3.5,81,0.00,OVC,,0.00,0.0,WeatherDisplay:10.37,2013-03-01 10:32:00,
2013-03-01 05:37:00,35.7,30.4,29.68,WNW,297,4.0,4.0,81,0.00,OVC,,0.00,0.0,WeatherDisplay:10.37,2013-03-01 10:37:00,
2013-03-01 05:42:00,35.7,30.7,29.68,NW,306,4.6,4.6,82,0.00,OVC,,0.00,0.0,WeatherDisplay:10.37,2013-03-01 10:42:00,
2013-03-01 05:47:00,35.8,30.8,29.69,NW,306,3.5,3.5,82,0.00,OVC,,0.00,0.0,WeatherDisplay:10.37,2013-03-01 10:47:00,
2013-03-01 05:52:00,35.8,30.8,29.69,WNW,298,3.5,3.5,82,0.00,OVC,,0.00,0.0,WeatherDisplay:10.37,2013-03-01 10:52:00,
2013-03-01 05:57:00,35.9,30.9,29.69,NW,310,3.5,3.5,82,0.00,OVC,,0.00,0.0,WeatherDisplay:10.37,2013-03-01 10:57:00,
2013-03-01 06:02:00,35.9,30.9,29.69,WNW,299,2.3,2.3,82,0.00,OVC,,0.00,0.0,WeatherDisplay:10.37,2013-03-01 11:02:00,
2013-03-01 06:07:00,36.0,30.7,29.69,WNW,297,3.5,3.5,81,0.00,OVC,,0.00,0.0,WeatherDisplay:10.37,2013-03-01 11:07:00,
2013-03-01 06:12:00,36.0,30.7,29.69,West,270,3.5,3.5,81,0.00,OVC,,0.00,0.0,WeatherDisplay:10.37,2013-03-01 11:12:00,
2013-03-01 06:17:00,36.1,30.8,29.69,WNW,295,3.5,3.5,81,0.00,OVC,,0.00,0.0,WeatherDisplay:10.37,2013-03-01 11:17:00,
2013-03-01 06:22:00,36.1,30.8,29.69,WSW,242,4.6,4.6,81,0.00,OVC,,0.00,0.0,WeatherDisplay:10.37,2013-03-01 11:22:00,
2013-03-01 06:27:00,36.2,30.9,29.69,WNW,300,4.6,4.6,81,0.00,OVC,,0.00,0.0,WeatherDisplay:10.37,2013-03-01 11:27:00,
2013-03-01 06:32:00,36.3,31.0,29.69,NW,304,3.5,3.5,81,0.00,OVC,,0.00,0.0,WeatherDisplay:10.37,2013-03-01 11:32:00,
2013-03-01 06:37:00,36.4,31.1,29.69,WNW,295,3.5,3.5,81,0.00,OVC,,0.00,0.0,WeatherDisplay:10.37,2013-03-01 11:37:00,
2013-03-01 06:42:00,36.5,30.9,29.69,NW,306,5.0,5.0,80,0.00,OVC,,0.00,0.0,WeatherDisplay:10.37,2013-03-01 11:42:00,
2013-03-01 06:47:00,36.5,30.9,29.69,WNW,300,4.6,4.6,80,0.00,OVC,,0.00,7.0,WeatherDisplay:10.37,2013-03-01 11:47:00,
2013-03-01 06:52:00,36.6,31.0,29.69,NW,307,5.8,5.8,80,0.00,OVC,,0.00,9.0,WeatherDisplay:10.37,2013-03-01 11:52:00,
2013-03-01 06:57:00,36.7,31.1,29.69,WNW,300,6.0,6.0,80,0.00,OVC,,0.00,7.0,WeatherDisplay:10.37,2013-03-01 11:57:00,
2013-03-01 07:02:00,36.6,32.5,29.69,NW,308,6.9,6.9,85,0.00,OVC,,0.00,9.0,WeatherDisplay:10.37,2013-03-01 12:02:00,
2013-03-01 07:07:00,36.7,32.6,29.70,WNW,286,5.8,5.8,85,0.00,OVC,,0.00,12.0,WeatherDisplay:10.37,2013-03-01 12:07:00,
2013-03-01 07:12:00,36.7,32.6,29.70,WNW,294,4.6,4.6,85,0.00,OVC,,0.00,14.0,WeatherDisplay:10.37,2013-03-01 12:12:00,
2013-03-01 07:17:00,36.7,31.1,29.70,WNW,296,6.0,6.0,80,0.00,OVC,,0.00,19.0,WeatherDisplay:10.37,2013-03-01 12:17:00,
2013-03-01 07:22:00,36.7,31.1,29.70,WNW,298,6.9,6.9,80,0.00,OVC,,0.00,32.0,WeatherDisplay:10.37,2013-03-01 12:22:00,
2013-03-01 07:27:00,36.8,31.2,29.70,NW,305,6.9,6.9,80,0.00,OVC,,0.00,39.0,WeatherDisplay:10.37,2013-03-01 12:27:00,
2013-03-01 07:32:00,36.9,31.0,29.70,WNW,301,6.9,6.9,79,0.00,OVC,,0.00,51.0,WeatherDisplay:10.37,2013-03-01 12:32:00,
2013-03-01 07:37:00,37.0,31.1,29.71,WNW,290,5.8,5.8,79,0.00,OVC,,0.00,51.0,WeatherDisplay:10.37,2013-03-01 12:37:00,
2013-03-01 07:42:00,37.0,31.1,29.71,WNW,291,8.1,8.1,79,0.00,OVC,,0.00,46.0,WeatherDisplay:10.37,2013-03-01 12:42:00,
2013-03-01 07:47:00,37.0,31.1,29.71,WNW,296,5.8,5.8,79,0.00,OVC,,0.00,42.0,WeatherDisplay:10.37,2013-03-01 12:47:00,
2013-03-01 07:52:00,36.8,30.9,29.72,WNW,288,5.0,5.0,79,0.00,OVC,,0.00,39.0,WeatherDisplay:10.37,2013-03-01 12:52:00,
2013-03-01 07:57:00,36.7,30.8,29.72,WNW,295,5.8,5.8,79,0.00,OVC,,0.00,47.0,WeatherDisplay:10.37,2013-03-01 12:57:00,
2013-03-01 08:02:00,36.6,30.7,29.72,WNW,286,3.5,3.5,79,0.00,FEW,,0.00,44.0,WeatherDisplay:10.37,2013-03-01 13:02:00,
2013-03-01 08:07:00,36.5,30.6,29.72,NW,312,5.8,5.8,79,0.00,FEW,,0.00,53.0,WeatherDisplay:10.37,2013-03-01 13:07:00,
2013-03-01 08:12:00,36.5,30.6,29.72,WNW,303,3.5,3.5,79,0.00,FEW,,0.00,58.0,WeatherDisplay:10.37,2013-03-01 13:12:00,
2013-03-01 08:17:00,36.8,30.9,29.72,WNW,295,4.6,4.6,79,0.00,FEW,,0.00,200.0,WeatherDisplay:10.37,2013-03-01 13:17:00,
2013-03-01 08:22:00,37.5,31.9,29.72,WNW,291,6.9,6.9,80,0.00,FEW,,0.00,183.0,WeatherDisplay:10.37,2013-03-01 13:22:00,
2013-03-01 08:27:00,38.3,32.0,29.72,WNW,303,8.1,8.1,78,0.00,FEW,,0.00,167.0,WeatherDisplay:10.37,2013-03-01 13:27:00,
2013-03-01 08:32:00,38.8,31.9,29.72,WNW,288,11.5,11.5,76,0.00,FEW,,0.00,181.0,WeatherDisplay:10.37,2013-03-01 13:32:00,
2013-03-01 08:37:00,38.9,31.6,29.73,WNW,291,8.1,8.1,75,0.00,FEW,,0.00,148.0,WeatherDisplay:10.37,2013-03-01 13:37:00,
2013-03-01 08:42:00,39.1,31.8,29.73,West,281,9.2,9.2,75,0.00,FEW,,0.00,134.0,WeatherDisplay:10.37,2013-03-01 13:42:00,
2013-03-01 08:47:00,39.3,31.7,29.73,NW,317,9.2,9.2,74,0.00,FEW,,0.00,114.0,WeatherDisplay:10.37,2013-03-01 13:47:00,
2013-03-01 08:52:00,39.3,31.4,29.73,NW,319,11.5,11.5,73,0.00,FEW,,0.00,107.0,WeatherDisplay:10.37,2013-03-01 13:52:00,
2013-03-01 08:57:00,39.4,31.5,29.73,NW,312,11.5,11.5,73,0.00,FEW,,0.00,141.0,WeatherDisplay:10.37,2013-03-01 13:57:00,
2013-03-01 09:02:00,39.6,31.7,29.73,NW,306,10.4,10.4,73,0.00,FEW,,0.00,171.0,WeatherDisplay:10.37,2013-03-01 14:02:00,
2013-03-01 09:07:00,39.7,31.4,29.73,NW,304,11.5,11.5,72,0.00,FEW,,0.00,192.0,WeatherDisplay:10.37,2013-03-01 14:07:00,
2013-03-01 09:12:00,39.9,31.6,29.73,NW,316,10.4,10.4,72,0.00,FEW,,0.00,192.0,WeatherDisplay:10.37,2013-03-01 14:12:00,
2013-03-01 09:17:00,40.1,31.4,29.74,WNW,292,13.8,13.8,71,0.00,FEW,,0.00,223.0,WeatherDisplay:10.37,2013-03-01 14:17:00,
2013-03-01 09:22:00,40.2,31.5,29.74,WNW,299,12.7,12.7,71,0.00,FEW,,0.00,236.0,WeatherDisplay:10.37,2013-03-01 14:22:00,
2013-03-01 09:27:00,40.3,31.6,29.74,WNW,302,11.5,11.5,71,0.00,FEW,,0.00,237.0,WeatherDisplay:10.37,2013-03-01 14:27:00,
2013-03-01 09:32:00,40.4,31.4,29.74,NW,305,12.7,12.7,70,0.00,FEW,,0.00,257.0,WeatherDisplay:10.37,2013-03-01 14:32:00,
2013-03-01 09:37:00,40.5,31.5,29.74,NW,313,12.0,12.0,70,0.00,FEW,,0.00,183.0,WeatherDisplay:10.37,2013-03-01 14:37:00,
2013-03-01 09:42:00,40.5,31.8,29.74,NW,311,9.0,9.0,71,0.00,FEW,,0.00,172.0,WeatherDisplay:10.37,2013-03-01 14:42:00,
2013-03-01 09:47:00,40.5,31.5,29.74,NW,313,15.0,15.0,70,0.00,FEW,,0.00,111.0,WeatherDisplay:10.37,2013-03-01 14:47:00,
2013-03-01 09:52:00,40.3,30.9,29.74,NW,315,11.5,11.5,69,0.00,FEW,,0.00,272.0,WeatherDisplay:10.37,2013-03-01 14:52:00,
2013-03-01 09:57:00,40.4,31.4,29.74,WNW,292,11.5,11.5,70,0.00,FEW,,0.00,229.0,WeatherDisplay:10.37,2013-03-01 14:57:00,
2013-03-01 10:02:00,40.5,31.1,29.74,NW,320,13.8,13.8,69,0.00,BKN,,0.00,288.0,WeatherDisplay:10.37,2013-03-01 15:02:00,
2013-03-01 10:07:00,40.9,31.1,29.74,NW,315,12.7,12.7,68,0.00,BKN,,0.00,179.0,WeatherDisplay:10.37,2013-03-01 15:07:00,
2013-03-01 10:12:00,40.8,31.1,29.74,NW,317,11.5,11.5,68,0.00,BKN,,0.00,144.0,WeatherDisplay:10.37,2013-03-01 15:12:00,
2013-03-01 10:17:00,40.8,31.1,29.73,WNW,301,11.5,11.5,68,0.00,BKN,,0.00,153.0,WeatherDisplay:10.37,2013-03-01 15:17:00,
2013-03-01 10:22:00,40.8,30.7,29.73,NW,305,11.5,11.5,67,0.00,BKN,,0.00,104.0,WeatherDisplay:10.37,2013-03-01 15:22:00,
2013-03-01 10:27:00,40.6,30.1,29.73,NW,308,11.5,11.5,66,0.00,BKN,,0.00,76.0,WeatherDisplay:10.37,2013-03-01 15:27:00,
2013-03-01 10:32:00,40.5,30.0,29.74,WNW,289,12.7,12.7,66,0.00,BKN,,0.00,90.0,WeatherDisplay:10.37,2013-03-01 15:32:00,
2013-03-01 10:37:00,40.4,29.9,29.74,NW,313,11.5,11.5,66,0.00,BKN,,0.00,107.0,WeatherDisplay:10.37,2013-03-01 15:37:00,
2013-03-01 10:42:00,40.4,30.3,29.74,NNW,328,11.5,11.5,67,0.00,BKN,,0.00,100.0,WeatherDisplay:10.37,2013-03-01 15:42:00,
2013-03-01 10:47:00,40.4,30.3,29.74,NNW,346,11.5,11.5,67,0.00,BKN,,0.00,91.0,WeatherDisplay:10.37,2013-03-01 15:47:00,
2013-03-01 10:52:00,40.4,30.3,29.74,NW,317,10.4,10.4,67,0.00,BKN,,0.00,116.0,WeatherDisplay:10.37,2013-03-01 15:52:00,
2013-03-01 10:57:00,40.5,30.8,29.74,NW,304,11.5,11.5,68,0.00,BKN,,0.00,91.0,WeatherDisplay:10.37,2013-03-01 15:57:00,
2013-03-01 11:02:00,40.7,30.6,29.74,WNW,298,13.8,13.8,67,0.00,OVC,,0.00,91.0,WeatherDisplay:10.37,2013-03-01 16:02:00,
2013-03-01 11:07:00,40.6,30.5,29.74,NW,314,13.8,13.8,67,0.00,OVC,,0.00,121.0,WeatherDisplay:10.37,2013-03-01 16:07:00,
2013-03-01 11:12:00,40.5,30.4,29.74,NNW,328,11.5,11.5,67,0.00,OVC,,0.00,139.0,WeatherDisplay:10.37,2013-03-01 16:12:00,
2013-03-01 11:17:00,40.5,30.4,29.74,North,360,11.5,11.5,67,0.00,OVC,,0.00,135.0,WeatherDisplay:10.37,2013-03-01 16:17:00,
2013-03-01 11:22:00,40.6,30.5,29.74,WNW,293,10.4,10.4,67,0.00,OVC,,0.00,127.0,WeatherDisplay:10.37,2013-03-01 16:22:00,
2013-03-01 11:27:00,40.6,30.5,29.74,WNW,292,13.8,13.8,67,0.00,OVC,,0.00,120.0,WeatherDisplay:10.37,2013-03-01 16:27:00,
2013-03-01 11:32:00,40.6,30.5,29.74,NW,304,11.5,11.5,67,0.00,OVC,,0.00,109.0,WeatherDisplay:10.37,2013-03-01 16:32:00,
2013-03-01 11:37:00,40.6,30.9,29.74,NW,318,10.4,10.4,68,0.00,OVC,,0.00,111.0,WeatherDisplay:10.37,2013-03-01 16:37:00,
2013-03-01 11:42:00,40.5,30.4,29.75,NW,324,11.5,11.5,67,0.00,OVC,,0.00,123.0,WeatherDisplay:10.37,2013-03-01 16:42:00,
2013-03-01 11:47:00,40.5,30.4,29.74,WNW,302,10.0,10.0,67,0.00,OVC,,0.00,185.0,WeatherDisplay:10.37,2013-03-01 16:47:00,
2013-03-01 11:52:00,40.9,31.1,29.74,WNW,300,11.5,11.5,68,0.00,OVC,,0.00,306.0,WeatherDisplay:10.37,2013-03-01 16:52:00,
2013-03-01 11:57:00,41.4,31.6,29.74,NNW,329,11.5,11.5,68,0.00,OVC,,0.00,218.0,WeatherDisplay:10.37,2013-03-01 16:57:00,
2013-03-01 12:02:00,41.3,30.8,29.74,NNW,335,11.5,11.5,66,0.00,OVC,,0.00,111.0,WeatherDisplay:10.37,2013-03-01 17:02:00,
2013-03-01 12:07:00,41.1,31.0,29.74,WNW,295,15.0,15.0,67,0.00,OVC,,0.00,70.0,WeatherDisplay:10.37,2013-03-01 17:07:00,
2013-03-01 12:12:00,40.6,30.9,29.74,WNW,300,13.8,13.8,68,0.00,OVC,,0.00,146.0,WeatherDisplay:10.37,2013-03-01 17:12:00,
2013-03-01 12:17:00,40.6,30.9,29.74,NW,311,11.5,11.5,68,0.00,OVC,,0.00,241.0,WeatherDisplay:10.37,2013-03-01 17:17:00,
2013-03-01 12:22:00,40.9,31.1,29.74,NW,309,15.0,15.0,68,0.00,OVC,,0.00,276.0,WeatherDisplay:10.37,2013-03-01 17:22:00,
2013-03-01 12:27:00,41.1,31.0,29.74,WSW,245,11.5,11.5,67,0.00,OVC,,0.00,269.0,WeatherDisplay:10.37,2013-03-01 17:27:00,
2013-03-01 12:32:00,41.1,30.6,29.74,NW,319,12.7,12.7,66,0.00,OVC,,0.00,220.0,WeatherDisplay:10.37,2013-03-01 17:32:00,
2013-03-01 12:38:00,41.0,30.9,29.74,WNW,290,15.0,15.0,67,0.00,OVC,,0.00,114.0,WeatherDisplay:10.37,2013-03-01 17:38:00,
2013-03-01 12:43:00,40.6,30.5,29.74,WNW,296,12.7,12.7,67,0.00,OVC,,0.00,132.0,WeatherDisplay:10.37,2013-03-01 17:43:00,
2013-03-01 12:48:00,40.5,30.4,29.74,NW,315,11.5,11.5,67,0.00,OVC,,0.00,160.0,WeatherDisplay:10.37,2013-03-01 17:48:00,
2013-03-01 12:53:00,40.6,30.5,29.74,West,281,9.2,9.2,67,0.00,OVC,,0.00,171.0,WeatherDisplay:10.37,2013-03-01 17:53:00,
2013-03-01 12:58:00,40.7,30.6,29.74,NW,312,13.8,13.8,67,0.00,OVC,,0.00,174.0,WeatherDisplay:10.37,2013-03-01 17:58:00,
2013-03-01 13:03:00,40.9,30.8,29.74,NW,306,13.8,13.8,67,0.00,OVC,,0.00,214.0,WeatherDisplay:10.37,2013-03-01 18:03:00,
2013-03-01 13:08:00,41.0,32.0,29.74,NNW,330,11.5,11.5,70,0.00,OVC,,0.00,258.0,WeatherDisplay:10.37,2013-03-01 18:08:00,
2013-03-01 13:13:00,41.3,30.8,29.74,NNW,333,10.4,10.4,66,0.00,OVC,,0.00,367.0,WeatherDisplay:10.37,2013-03-01 18:13:00,
2013-03-01 13:18:00,41.6,31.1,29.73,NW,308,12.7,12.7,66,0.00,OVC,,0.00,387.0,WeatherDisplay:10.37,2013-03-01 18:18:00,
2013-03-01 13:23:00,42.0,30.7,29.73,NNW,336,12.7,12.7,64,0.00,OVC,,0.00,338.0,WeatherDisplay:10.37,2013-03-01 18:23:00,
2013-03-01 13:28:00,42.0,31.1,29.73,NNW,341,12.7,12.7,65,0.00,OVC,,0.00,292.0,WeatherDisplay:10.37,2013-03-01 18:28:00,
2013-03-01 13:33:00,42.0,31.1,29.73,NW,319,11.5,11.5,65,0.00,OVC,,0.00,114.0,WeatherDisplay:10.37,2013-03-01 18:33:00,
2013-03-01 13:38:00,41.2,30.7,29.74,NNW,336,11.5,11.5,66,0.00,OVC,,0.00,98.0,WeatherDisplay:10.37,2013-03-01 18:38:00,
2013-03-01 13:43:00,40.7,30.6,29.74,NW,317,11.5,11.5,67,0.00,OVC,,0.00,130.0,WeatherDisplay:10.37,2013-03-01 18:43:00,
2013-03-01 13:48:00,40.6,30.5,29.74,NW,310,15.0,15.0,67,0.00,OVC,,0.00,199.0,WeatherDisplay:10.37,2013-03-01 18:48:00,
2013-03-01 13:53:00,40.9,30.4,29.74,NW,312,13.8,13.8,66,0.00,OVC,,0.00,220.0,WeatherDisplay:10.37,2013-03-01 18:53:00,
2013-03-01 13:58:00,41.0,30.5,29.74,NW,311,13.8,13.8,66,0.00,OVC,,0.00,213.0,WeatherDisplay:10.37,2013-03-01 18:58:00,
2013-03-01 14:03:00,41.1,30.6,29.74,NNW,337,11.0,11.0,66,0.00,OVC,,0.00,174.0,WeatherDisplay:10.37,2013-03-01 19:03:00,
2013-03-01 14:08:00,41.1,30.6,29.74,NW,324,9.2,9.2,66,0.00,OVC,,0.00,151.0,WeatherDisplay:10.37,2013-03-01 19:08:00,
2013-03-01 14:13:00,41.1,30.2,29.74,WNW,301,16.1,16.1,65,0.00,OVC,,0.00,144.0,WeatherDisplay:10.37,2013-03-01 19:13:00,
2013-03-01 14:18:00,41.0,30.5,29.74,NNW,331,13.0,13.0,66,0.00,OVC,,0.00,153.0,WeatherDisplay:10.37,2013-03-01 19:18:00,
2013-03-01 14:23:00,40.7,30.6,29.74,NW,306,10.4,10.4,67,0.00,OVC,,0.00,169.0,WeatherDisplay:10.37,2013-03-01 19:23:00,
2013-03-01 14:28:00,40.8,30.7,29.74,NW,308,12.7,12.7,67,0.00,OVC,,0.00,232.0,WeatherDisplay:10.37,2013-03-01 19:28:00,
2013-03-01 14:33:00,40.9,30.8,29.74,NW,307,15.0,15.0,67,0.00,OVC,,0.00,225.0,WeatherDisplay:10.37,2013-03-01 19:33:00,
2013-03-01 14:38:00,40.7,30.2,29.74,NW,311,18.0,18.0,66,0.00,OVC,,0.00,174.0,WeatherDisplay:10.37,2013-03-01 19:38:00,
2013-03-01 14:43:00,40.5,29.7,29.74,NNW,338,13.8,13.8,65,0.00,OVC,,0.00,156.0,WeatherDisplay:10.37,2013-03-01 19:43:00,
2013-03-01 14:48:00,40.3,29.5,29.74,NNW,340,11.5,11.5,65,0.00,OVC,,0.00,118.0,WeatherDisplay:10.37,2013-03-01 19:48:00,
2013-03-01 14:53:00,40.4,29.6,29.73,NW,310,8.0,8.0,65,0.00,OVC,,0.00,127.0,WeatherDisplay:10.37,2013-03-01 19:53:00,
2013-03-01 14:58:00,40.6,29.4,29.74,NW,307,15.0,15.0,64,0.00,OVC,,0.00,162.0,WeatherDisplay:10.37,2013-03-01 19:58:00,
2013-03-01 15:03:00,40.8,29.6,29.74,NW,306,12.7,12.7,64,0.00,OVC,,0.00,236.0,WeatherDisplay:10.37,2013-03-01 20:03:00,
2013-03-01 15:08:00,40.9,28.9,29.74,NW,317,9.2,9.2,62,0.00,OVC,,0.00,297.0,WeatherDisplay:10.37,2013-03-01 20:08:00,
2013-03-01 15:13:00,41.2,29.5,29.73,NW,310,11.5,11.5,63,0.00,OVC,,0.00,234.0,WeatherDisplay:10.37,2013-03-01 20:13:00,
2013-03-01 15:18:00,41.3,28.9,29.74,North,355,13.8,13.8,61,0.00,OVC,,0.00,190.0,WeatherDisplay:10.37,2013-03-01 20:18:00,
2013-03-01 15:23:00,41.2,29.5,29.74,NW,315,9.2,9.2,63,0.00,OVC,,0.00,148.0,WeatherDisplay:10.37,2013-03-01 20:23:00,
2013-03-01 15:28:00,41.3,29.6,29.74,NW,308,11.5,11.5,63,0.00,OVC,,0.00,97.0,WeatherDisplay:10.37,2013-03-01 20:28:00,
2013-03-01 15:33:00,41.0,29.7,29.74,NW,306,10.4,10.4,64,0.00,OVC,,0.00,77.0,WeatherDisplay:10.37,2013-03-01 20:33:00,
2013-03-01 15:38:00,40.7,29.1,29.74,WNW,296,11.5,11.5,63,0.00,OVC,,0.00,79.0,WeatherDisplay:10.37,2013-03-01 20:38:00,
2013-03-01 15:43:00,40.6,29.4,29.74,NW,313,11.5,11.5,64,0.00,OVC,,0.00,81.0,WeatherDisplay:10.37,2013-03-01 20:43:00,
2013-03-01 15:48:00,40.5,29.3,29.74,NNW,330,11.5,11.5,64,0.00,OVC,,0.00,86.0,WeatherDisplay:10.37,2013-03-01 20:48:00,
2013-03-01 15:53:00,40.4,29.2,29.74,NW,315,12.7,12.7,64,0.00,OVC,,0.00,93.0,WeatherDisplay:10.37,2013-03-01 20:53:00,
2013-03-01 15:58:00,40.4,29.6,29.74,NW,309,16.0,16.0,65,0.00,OVC,,0.00,100.0,WeatherDisplay:10.37,2013-03-01 20:58:00,
2013-03-01 16:03:00,40.4,29.2,29.74,NW,304,11.5,11.5,64,0.00,OVC,,0.00,93.0,WeatherDisplay:10.37,2013-03-01 21:03:00,
2013-03-01 16:08:00,40.3,28.7,29.74,WNW,292,10.4,10.4,63,0.00,OVC,,0.00,100.0,WeatherDisplay:10.37,2013-03-01 21:08:00,
2013-03-01 16:13:00,40.3,28.3,29.74,NW,316,15.0,15.0,62,0.00,OVC,,0.00,111.0,WeatherDisplay:10.37,2013-03-01 21:13:00,
2013-03-01 16:18:00,40.4,28.0,29.74,NW,313,12.7,12.7,61,0.00,OVC,,0.00,97.0,WeatherDisplay:10.37,2013-03-01 21:18:00,
2013-03-01 16:23:00,40.6,28.6,29.74,NW,305,11.5,11.5,62,0.00,OVC,,0.00,86.0,WeatherDisplay:10.37,2013-03-01 21:23:00,
2013-03-01 16:28:00,40.6,28.6,29.74,WNW,286,11.5,11.5,62,0.00,OVC,,0.00,81.0,WeatherDisplay:10.37,2013-03-01 21:28:00,
2013-03-01 16:34:00,40.5,28.1,29.74,NW,313,12.7,12.7,61,0.00,OVC,,0.00,70.0,WeatherDisplay:10.37,2013-03-01 21:34:00,
2013-03-01 16:39:00,40.4,28.0,29.74,WNW,295,15.0,15.0,61,0.00,OVC,,0.00,74.0,WeatherDisplay:10.37,2013-03-01 21:39:00,
2013-03-01 16:44:00,40.4,28.4,29.74,WNW,297,15.0,15.0,62,0.00,OVC,,0.00,72.0,WeatherDisplay:10.37,2013-03-01 21:44:00,
2013-03-01 16:49:00,40.3,27.9,29.75,WNW,302,13.0,13.0,61,0.00,OVC,,0.00,72.0,WeatherDisplay:10.37,2013-03-01 21:49:00,
2013-03-01 16:54:00,40.3,27.9,29.75,NW,313,9.2,9.2,61,0.00,OVC,,0.00,70.0,WeatherDisplay:10.37,2013-03-01 21:54:00,
2013-03-01 16:59:00,40.3,27.9,29.75,NNW,328,11.5,11.5,61,0.00,OVC,,0.00,63.0,WeatherDisplay:10.37,2013-03-01 21:59:00,
2013-03-01 17:04:00,40.4,27.6,29.75,NW,309,10.4,10.4,60,0.00,OVC,,0.00,53.0,WeatherDisplay:10.37,2013-03-01 22:04:00,
2013-03-01 17:09:00,40.4,27.6,29.75,NW,306,11.5,11.5,60,0.00,OVC,,0.00,44.0,WeatherDisplay:10.37,2013-03-01 22:09:00,
2013-03-01 17:14:00,40.3,27.5,29.75,NW,313,11.5,11.5,60,0.00,OVC,,0.00,32.0,WeatherDisplay:10.37,2013-03-01 22:14:00,
2013-03-01 17:19:00,40.2,27.4,29.75,WNW,302,11.5,11.5,60,0.00,OVC,,0.00,23.0,WeatherDisplay:10.37,2013-03-01 22:19:00,
2013-03-01 17:24:00,40.1,27.3,29.75,WNW,300,13.8,13.8,60,0.00,OVC,,0.00,16.0,WeatherDisplay:10.37,2013-03-01 22:24:00,
2013-03-01 17:29:00,40.0,27.6,29.75,NW,310,9.2,9.2,61,0.00,OVC,,0.00,14.0,WeatherDisplay:10.37,2013-03-01 22:29:00,
2013-03-01 17:34:00,39.8,27.4,29.75,NW,311,10.4,10.4,61,0.00,OVC,,0.00,12.0,WeatherDisplay:10.37,2013-03-01 22:34:00,
2013-03-01 17:39:00,39.7,27.7,29.76,NW,305,10.4,10.4,62,0.00,OVC,,0.00,11.0,WeatherDisplay:10.37,2013-03-01 22:39:00,
2013-03-01 17:44:00,39.6,28.0,29.76,WNW,296,11.5,11.5,63,0.00,OVC,,0.00,9.0,WeatherDisplay:10.37,2013-03-01 22:44:00,
2013-03-01 17:49:00,39.5,28.3,29.76,NW,306,9.2,9.2,64,0.00,OVC,,0.00,0.0,WeatherDisplay:10.37,2013-03-01 22:49:00,
2013-03-01 17:54:00,39.3,28.1,29.76,WNW,294,10.4,10.4,64,0.00,OVC,,0.00,0.0,WeatherDisplay:10.37,2013-03-01 22:54:00,
2013-03-01 17:59:00,39.3,28.5,29.76,WNW,295,9.2,9.2,65,0.00,OVC,,0.00,0.0,WeatherDisplay:10.37,2013-03-01 22:59:00,
2013-03-01 18:04:00,39.2,28.4,29.76,NW,307,6.9,6.9,65,0.00,OVC,,0.00,0.0,WeatherDisplay:10.37,2013-03-01 23:04:00,
2013-03-01 18:09:00,39.1,28.7,29.77,WNW,294,9.2,9.2,66,0.00,OVC,,0.00,0.0,WeatherDisplay:10.37,2013-03-01 23:09:00,
2013-03-01 18:14:00,38.9,28.5,29.77,NW,304,6.9,6.9,66,0.00,OVC,,0.00,0.0,WeatherDisplay:10.37,2013-03-01 23:14:00,
2013-03-01 18:19:00,38.9,28.5,29.77,NW,311,8.1,8.1,66,0.00,OVC,,0.00,0.0,WeatherDisplay:10.37,2013-03-01 23:19:00,
2013-03-01 18:24:00,38.8,28.8,29.77,NW,305,8.1,8.1,67,0.00,OVC,,0.00,0.0,WeatherDisplay:10.37,2013-03-01 23:24:00,
2013-03-01 18:29:00,38.7,28.7,29.77,WNW,296,5.8,5.8,67,0.00,OVC,,0.00,0.0,WeatherDisplay:10.37,2013-03-01 23:29:00,
2013-03-01 18:34:00,38.6,28.9,29.77,NW,310,8.1,8.1,68,0.00,OVC,,0.00,0.0,WeatherDisplay:10.37,2013-03-01 23:34:00,
2013-03-01 18:39:00,38.5,28.9,29.77,NW,308,6.0,6.2,68,0.00,OVC,,0.00,0.0,WeatherDisplay:10.37,2013-03-01 23:39:00,
2013-03-01 18:44:00,38.6,28.6,29.78,WNW,298,6.9,6.9,67,0.00,OVC,,0.00,0.0,WeatherDisplay:10.37,2013-03-01 23:44:00,
2013-03-01 18:49:00,38.6,28.6,29.78,WNW,294,5.8,5.8,67,0.00,OVC,,0.00,0.0,WeatherDisplay:10.37,2013-03-01 23:49:00,
2013-03-01 18:54:00,38.5,28.9,29.78,WNW,298,3.5,3.5,68,0.00,OVC,,0.00,0.0,WeatherDisplay:10.37,2013-03-01 23:54:00,
2013-03-01 18:59:00,38.4,28.8,29.78,NNW,331,4.6,4.6,68,0.00,OVC,,0.00,0.0,WeatherDisplay:10.37,2013-03-01 23:59:00,
2013-03-01 19:04:00,38.3,28.7,29.78,WNW,300,6.0,6.0,68,0.00,OVC,,0.00,0.0,WeatherDisplay:10.37,2013-03-02 00:04:00,
2013-03-01 19:09:00,38.3,28.7,29.78,NW,313,7.0,7.0,68,0.00,OVC,,0.00,0.0,WeatherDisplay:10.37,2013-03-02 00:09:00,
2013-03-01 19:14:00,38.3,28.3,29.78,NW,309,10.4,10.4,67,0.00,OVC,,0.00,0.0,WeatherDisplay:10.37,2013-03-02 00:14:00,
2013-03-01 19:19:00,38.4,28.4,29.78,NW,307,9.2,9.2,67,0.00,OVC,,0.00,0.0,WeatherDisplay:10.37,2013-03-02 00:19:00,
2013-03-01 19:24:00,38.4,28.0,29.78,WNW,296,9.2,9.2,66,0.00,OVC,,0.00,0.0,WeatherDisplay:10.37,2013-03-02 00:24:00,
2013-03-01 19:29:00,38.4,28.0,29.78,WNW,297,11.5,11.5,66,0.00,OVC,,0.00,0.0,WeatherDisplay:10.37,2013-03-02 00:29:00,
2013-03-01 19:34:00,38.4,28.0,29.78,NW,314,6.9,6.9,66,0.00,OVC,,0.00,0.0,WeatherDisplay:10.37,2013-03-02 00:34:00,
2013-03-01 19:39:00,38.3,27.9,29.78,NNW,339,8.1,8.1,66,0.00,OVC,,0.00,0.0,WeatherDisplay:10.37,2013-03-02 00:39:00,
2013-03-01 19:44:00,38.2,28.2,29.79,NNW,329,10.4,10.4,67,0.00,OVC,,0.00,0.0,WeatherDisplay:10.37,2013-03-02 00:44:00,
2013-03-01 19:49:00,38.0,28.4,29.79,NW,313,6.0,6.0,68,0.00,OVC,,0.00,0.0,WeatherDisplay:10.37,2013-03-02 00:49:00,
2013-03-01 19:54:00,37.9,28.3,29.79,WNW,301,9.2,9.2,68,0.00,OVC,,0.00,0.0,WeatherDisplay:10.37,2013-03-02 00:54:00,
2013-03-01 19:59:00,37.7,28.1,29.79,NNW,327,9.2,9.2,68,0.00,OVC,,0.00,0.0,WeatherDisplay:10.37,2013-03-02 00:59:00,
2013-03-01 20:04:00,37.6,28.3,29.78,NNW,340,9.2,9.2,69,0.00,OVC,,0.00,0.0,WeatherDisplay:10.37,2013-03-02 01:04:00,
2013-03-01 20:09:00,37.5,28.2,29.78,NW,323,8.1,8.1,69,0.00,OVC,,0.00,0.0,WeatherDisplay:10.37,2013-03-02 01:09:00,
2013-03-01 20:14:00,37.4,28.2,29.78,NW,320,9.2,9.2,69,0.00,OVC,,0.00,0.0,WeatherDisplay:10.37,2013-03-02 01:14:00,
2013-03-01 20:19:00,37.3,28.1,29.78,NW,320,10.4,10.4,69,0.00,OVC,,0.00,0.0,WeatherDisplay:10.37,2013-03-02 01:19:00,
2013-03-01 20:24:00,37.1,27.9,29.79,NW,325,6.0,6.0,69,0.00,OVC,,0.00,0.0,WeatherDisplay:10.37,2013-03-02 01:24:00,
2013-03-01 20:29:00,36.8,27.6,29.79,NW,323,5.8,5.8,69,0.00,OVC,,0.00,0.0,WeatherDisplay:10.37,2013-03-02 01:29:00,
2013-03-01 20:34:00,36.6,27.4,29.80,NNW,329,8.1,8.1,69,0.00,OVC,,0.00,0.0,WeatherDisplay:10.37,2013-03-02 01:34:00,
2013-03-01 20:39:00,36.4,27.2,29.80,NW,309,6.9,6.9,69,0.00,OVC,,0.00,0.0,WeatherDisplay:10.37,2013-03-02 01:39:00,
2013-03-01 20:44:00,36.3,27.1,29.80,NW,324,3.5,3.5,69,0.00,OVC,,0.00,0.0,WeatherDisplay:10.37,2013-03-02 01:44:00,
2013-03-01 20:49:00,36.4,27.2,29.80,NW,318,5.8,5.8,69,0.00,OVC,,0.00,0.0,WeatherDisplay:10.37,2013-03-02 01:49:00,
2013-03-01 20:54:00,36.4,27.2,29.80,NW,317,3.5,3.5,69,0.00,OVC,,0.00,0.0,WeatherDisplay:10.37,2013-03-02 01:54:00,
2013-03-01 20:59:00,36.4,27.2,29.81,NW,313,4.6,4.6,69,0.00,OVC,,0.00,0.0,WeatherDisplay:10.37,2013-03-02 01:59:00,
2013-03-01 21:04:00,36.4,27.2,29.81,NW,313,4.6,4.6,69,0.00,OVC,,0.00,0.0,WeatherDisplay:10.37,2013-03-02 02:04:00,
2013-03-01 21:09:00,36.5,27.3,29.81,NW,312,6.9,6.9,69,0.00,OVC,,0.00,0.0,WeatherDisplay:10.37,2013-03-02 02:09:00,
2013-03-01 21:14:00,36.6,27.0,29.81,NNW,328,4.6,4.6,68,0.00,OVC,,0.00,0.0,WeatherDisplay:10.37,2013-03-02 02:14:00,
2013-03-01 21:19:00,36.6,27.0,29.81,NW,311,8.1,8.1,68,0.00,OVC,,0.00,0.0,WeatherDisplay:10.37,2013-03-02 02:19:00,
2013-03-01 21:24:00,36.5,27.3,29.81,NNW,340,5.8,5.8,69,0.00,OVC,,0.00,0.0,WeatherDisplay:10.37,2013-03-02 02:24:00,
2013-03-01 21:29:00,36.6,27.4,29.81,NW,312,9.2,9.2,69,0.00,OVC,,0.00,0.0,WeatherDisplay:10.37,2013-03-02 02:29:00,
2013-03-01 21:34:00,36.6,27.0,29.81,NW,315,5.8,5.8,68,0.00,OVC,,0.00,0.0,WeatherDisplay:10.37,2013-03-02 02:34:00,
2013-03-01 21:39:00,36.6,27.0,29.81,NW,319,5.8,5.8,68,0.00,OVC,,0.00,0.0,WeatherDisplay:10.37,2013-03-02 02:39:00,
2013-03-01 21:44:00,36.6,27.0,29.81,NW,310,9.2,9.2,68,0.00,OVC,,0.00,0.0,WeatherDisplay:10.37,2013-03-02 02:44:00,
2013-03-01 21:49:00,36.7,26.8,29.81,NW,326,10.4,10.4,67,0.00,OVC,,0.00,0.0,WeatherDisplay:10.37,2013-03-02 02:49:00,
2013-03-01 21:54:00,36.8,26.5,29.81,NW,325,10.4,10.4,66,0.00,OVC,,0.00,0.0,WeatherDisplay:10.37,2013-03-02 02:54:00,
2013-03-01 21:59:00,36.8,26.1,29.81,WNW,303,8.0,8.0,65,0.00,OVC,,0.00,0.0,WeatherDisplay:10.37,2013-03-02 02:59:00,
2013-03-01 22:04:00,36.8,26.1,29.81,NW,322,8.1,8.1,65,0.00,OVC,,0.00,0.0,WeatherDisplay:10.37,2013-03-02 03:04:00,
2013-03-01 22:09:00,36.8,26.1,29.81,NW,306,6.9,6.9,65,0.00,OVC,,0.00,0.0,WeatherDisplay:10.37,2013-03-02 03:09:00,
2013-03-01 22:14:00,36.6,25.9,29.81,WNW,300,10.0,10.0,65,0.00,OVC,,0.00,0.0,WeatherDisplay:10.37,2013-03-02 03:14:00,
2013-03-01 22:19:00,36.6,25.9,29.81,NW,313,11.5,11.5,65,0.00,OVC,,0.00,0.0,WeatherDisplay:10.37,2013-03-02 03:19:00,
2013-03-01 22:24:00,36.7,26.0,29.81,NNW,327,9.2,9.2,65,0.00,OVC,,0.00,0.0,WeatherDisplay:10.37,2013-03-02 03:24:00,
2013-03-01 22:29:00,36.5,25.8,29.81,NW,312,9.2,9.2,65,0.00,OVC,,0.00,0.0,WeatherDisplay:10.37,2013-03-02 03:29:00,
2013-03-01 22:34:00,36.4,25.7,29.81,NNW,344,12.7,12.7,65,0.00,OVC,,0.00,0.0,WeatherDisplay:10.37,2013-03-02 03:34:00,
2013-03-01 22:39:00,36.4,25.7,29.81,NW,317,9.2,9.2,65,0.00,OVC,,0.00,0.0,WeatherDisplay:10.37,2013-03-02 03:39:00,
2013-03-01 22:44:00,36.3,26.0,29.81,NNW,332,9.2,9.2,66,0.00,OVC,,0.00,0.0,WeatherDisplay:10.37,2013-03-02 03:44:00,
2013-03-01 22:49:00,36.2,25.9,29.81,NW,309,9.2,9.2,66,0.00,OVC,,0.00,0.0,WeatherDisplay:10.37,2013-03-02 03:49:00,
2013-03-01 22:54:00,36.1,25.8,29.81,WNW,302,9.2,9.2,66,0.00,OVC,,0.00,0.0,WeatherDisplay:10.37,2013-03-02 03:54:00,
2013-03-01 22:59:00,35.9,26.0,29.81,WNW,293,8.1,8.1,67,0.00,OVC,,0.00,0.0,WeatherDisplay:10.37,2013-03-02 03:59:00,
2013-03-01 23:04:00,35.7,25.8,29.81,NW,312,11.5,11.5,67,0.00,OVC,,0.00,0.0,WeatherDisplay:10.37,2013-03-02 04:04:00,
2013-03-01 23:09:00,35.5,26.0,29.81,NW,324,8.0,8.0,68,0.00,OVC,,0.00,0.0,WeatherDisplay:10.37,2013-03-02 04:09:00,
2013-03-01 23:14:00,35.2,25.7,29.81,NW,323,6.0,6.0,68,0.00,OVC,,0.00,0.0,WeatherDisplay:10.37,2013-03-02 04:14:00,
2013-03-01 23:19:00,34.9,25.8,29.81,NW,307,9.2,9.2,69,0.00,OVC,,0.00,0.0,WeatherDisplay:10.37,2013-03-02 04:19:00,
2013-03-01 23:24:00,34.6,25.5,29.81,NW,311,6.9,6.9,69,0.00,OVC,,0.00,0.0,WeatherDisplay:10.37,2013-03-02 04:24:00,
2013-03-01 23:29:00,34.4,25.6,29.81,NW,312,6.9,6.9,70,0.00,OVC,,0.00,0.0,WeatherDisplay:10.37,2013-03-02 04:29:00,
2013-03-01 23:34:00,34.3,25.5,29.80,NW,315,9.2,9.2,70,0.00,OVC,,0.00,0.0,WeatherDisplay:10.37,2013-03-02 04:34:00,
2013-03-01 23:39:00,34.1,25.3,29.80,NNW,331,9.2,9.2,70,0.00,OVC,,0.00,0.0,WeatherDisplay:10.37,2013-03-02 04:39:00,
2013-03-01 23:45:00,34.0,25.2,29.80,NW,316,6.9,6.9,70,0.00,OVC,,0.00,0.0,WeatherDisplay:10.37,2013-03-02 04:45:00,
2013-03-01 23:50:00,33.8,25.4,29.80,NW,326,6.9,6.9,71,0.00,OVC,,0.00,0.0,WeatherDisplay:10.37,2013-03-02 04:50:00,
2013-03-01 23:55:00,33.6,25.2,29.80,NNW,334,4.6,4.8,71,0.00,OVC,,0.00,0.0,WeatherDisplay:10.37,2013-03-02 04:55:00,